Location: Fort Worth, Tx
(32.7431°N, 97.3695°W)
Time: 05:58:20
(UTC-05:00)

Altair - Pass Details

Date: 08 October 2023
Orbit: 1501 x 1682 km, 47.2° (Epoch: 06 December)

Event Time Altitude Azimuth Distance (km) Brightness Sun altitude
Rises 09:42:32 0° 305° (NW) 4,894 9.5 14.4°
Reaches altitude 10° 09:45:43 10° 301° (WNW) 3,920 9.1 15.1°
Maximum altitude 09:55:32 59° 226° (SW) 1,899 8.1 17.0°
Drops below altitude 10° 10:05:22 10° 150° (SSE) 3,921 10.6 19.0°
Sets 10:08:34 0° 146° (SE) 4,896 11.0 19.6°
